Home > Weather > Tegucigalpa > Past weeks

Flag for Honduras Weather for the Past 2 Weeks in Tegucigalpa, Honduras

Now
64 °F

Partly sunny.


Feels Like: 64 °F
Forecast: N/A
Wind: 16 mph from North

Location: Tegucigalpa Airport

Current Time: Feb 10, 2016 at 5:18:21 PM

Latest Report: Feb 10, 2016 at 5:00 PM


Visibility: N/A

Pressure: 30.21 "Hg (26.69 "Hg at 1054m altitude)

Humidity: 68%

Dew point: 54 °F

Location of TegucigalpaLocation

Historic Weather in Tegucigalpa — Graph

°F

Tegucigalpa Temperature Yesterday

Maximum temperature yesterday: 72 °F (at 2:00 PM)
Minimum temperature yesterday: 57 °F (at 7:00 PM)
Average temperature yesterday: 62 °F

High & Low Weather Summary for the Past Weeks

 TemperatureHumidityPressure
High90 °F (Jan 27, 3:00 PM)100% (Jan 27, 4:00 AM)30.33 "Hg (Jan 27, 4:00 AM)
Low55 °F (Jan 31, 3:00 AM)26% (Feb 3, 3:00 PM)29.80 "Hg (Feb 3, 10:00 AM)
Average68 °F76%30.12 "Hg
* Reported Jan 26 3:00 PM — Feb 10 3:00 PM, Tegucigalpa, Weather by CustomWeather, © 2016

Note: Actual official high and low records may vary slightly from our data, if they occured in-between our weather recording intervals... More about our weather records

Advertising

Tegucigalpa Weather History for the Previous 24 Hours

 ConditionsComfort  
Time TempWeatherWind HumidityBarometerVisibility
3:00 PM
Wed, Feb 10
70 °FPartly sunny.16 mph60%30.21 "HgN/A
2:00 PM72 °FScattered clouds.17 mph57%30.21 "HgN/A
1:00 PM72 °FPassing clouds.16 mph57%30.24 "HgN/A
12:00 PM72 °FScattered clouds.12 mph57%30.27 "HgN/A
11:00 AM68 °FScattered clouds.14 mph64%30.30 "HgN/A
10:00 AM68 °FPassing clouds.16 mph60%30.30 "HgN/A
9:00 AM64 °FPassing clouds.12 mph68%30.33 "HgN/A
8:00 AM59 °FScattered clouds.14 mph82%30.30 "HgN/A
7:00 AM57 °FScattered clouds.9 mph88%30.30 "HgN/A
6:00 AM57 °FPassing clouds.7 mph82%30.27 "HgN/A
5:00 AM57 °FPassing clouds.5 mph82%30.27 "HgN/A
4:00 AM57 °FPassing clouds.5 mph82%30.24 "HgN/A
3:00 AM57 °FPassing clouds.9 mph82%30.24 "HgN/A
2:00 AM55 °FPassing clouds.5 mph88%30.24 "HgN/A
1:00 AM57 °FPassing clouds.9 mph82%30.27 "HgN/A
12:00 AM57 °FPassing clouds.9 mph82%30.27 "HgN/A
11:00 PM
Tue, Feb 9
57 °FPassing clouds.9 mph82%30.30 "HgN/A
10:00 PM57 °FPassing clouds.9 mph82%30.30 "HgN/A
9:00 PM57 °FPassing clouds.7 mph88%30.30 "HgN/A
8:00 PM57 °FPartly cloudy.12 mph88%30.27 "Hg6 mi
7:00 PM57 °FScattered showers. Partly cloudy.9 mph88%30.24 "Hg5 mi
6:00 PM59 °FPassing clouds.9 mph82%30.21 "HgN/A
5:00 PM61 °FBroken clouds.9 mph83%30.18 "HgN/A
Weather by CustomWeather, © 2016

See weather overviewHow to use our weather pages